| time (UTC) | temp C | wind direction | speed KPH | gust KPH | rain 1hr cm | rain 24hr cm | rain mn cm | humidity % | barometer mb |
| 20260507181601 | 19 | 31 | 1.6 | 6.4 | 0.00 | 0.05 | 0.05 | 56 | 1013.5 |
| 20260507180053 | 20 | 242 | 1.6 | 6.4 | 0.00 | 0.05 | 0.05 | 55 | 1013.4 |
| 20260507174557 | 20 | 167 | 1.6 | 4.8 | 0.00 | 0.05 | 0.05 | 54 | 1013.1 |
| 20260507173051 | 21 | 16 | 1.6 | 8.0 | 0.00 | 0.05 | 0.05 | 50 | 1013.0 |
| 20260507171602 | 22 | 266 | 1.6 | 6.4 | 0.00 | 0.05 | 0.05 | 42 | 1012.9 |
| 20260507170053 | 22 | 264 | 1.6 | 6.4 | 0.00 | 0.05 | 0.05 | 40 | 1013.0 |
| 20260507164553 | 23 | 191 | 0.0 | 8.0 | 0.00 | 0.08 | 0.05 | 41 | 1012.9 |
| 20260507163053 | 23 | 226 | 1.6 | 9.7 | 0.00 | 0.08 | 0.05 | 41 | 1013.1 |
| 20260507161555 | 23 | 139 | 0.0 | 11.3 | 0.00 | 0.08 | 0.05 | 44 | 1013.0 |
| 20260507160053 | 23 | 229 | 3.2 | 9.7 | 0.00 | 0.08 | 0.05 | 45 | 1013.0 |
| 20260507154552 | 23 | 260 | 1.6 | 6.4 | 0.00 | 0.43 | 0.05 | 43 | 1012.9 |
| 20260507153100 | 23 | 309 | 4.8 | 9.7 | 0.00 | 0.43 | 0.05 | 42 | 1013.0 |
| 20260507151550 | 23 | 128 | 1.6 | 11.3 | 0.00 | 0.43 | 0.05 | 42 | 1013.1 |
| 20260507150052 | 23 | 132 | 1.6 | 12.9 | 0.00 | 0.43 | 0.05 | 43 | 1013.1 |
| 20260507144553 | 24 | 190 | 1.6 | 4.8 | 0.00 | 0.64 | 0.05 | 42 | 1013.3 |
| 20260507143050 | 23 | 207 | 3.2 | 9.7 | 0.00 | 0.64 | 0.05 | 43 | 1013.4 |
| 20260507141552 | 23 | 90 | 3.2 | 11.3 | 0.00 | 0.64 | 0.05 | 42 | 1013.5 |
| 20260507140053 | 24 | 285 | 1.6 | 6.4 | 0.00 | 0.64 | 0.05 | 40 | 1013.5 |
| 20260507134554 | 24 | 162 | 1.6 | 8.0 | 0.00 | 0.64 | 0.05 | 45 | 1013.6 |
| 20260507133057 | 23 | 282 | 0.0 | 11.3 | 0.00 | 0.64 | 0.05 | 42 | 1013.8 |
| 20260507131600 | 24 | 167 | 1.6 | 6.4 | 0.00 | 0.64 | 0.05 | 43 | 1013.9 |
| 20260507130109 | 23 | 210 | 1.6 | 6.4 | 0.00 | 0.64 | 0.05 | 45 | 1013.9 |
| 20260507124557 | 23 | 150 | 3.2 | 9.7 | 0.00 | 0.64 | 0.05 | 43 | 1014.1 |
| 20260507123059 | 21 | 181 | 3.2 | 9.7 | 0.00 | 0.64 | 0.05 | 46 | 1014.1 |
| 20260507121607 | 23 | 141 | 1.6 | 6.4 | 0.00 | 0.64 | 0.05 | 47 | 1014.0 |
| 20260507114613 | 21 | 119 | 4.8 | 8.0 | 0.00 | 0.64 | 0.05 | 52 | 1014.1 |
| 20260507113055 | 21 | 41 | 1.6 | 4.8 | 0.00 | 0.64 | 0.05 | 56 | 1014.3 |
| 20260507111604 | 22 | 195 | 3.2 | 8.0 | 0.00 | 0.64 | 0.05 | 53 | 1014.6 |
| 20260507110109 | 22 | 118 | 1.6 | 9.7 | 0.00 | 0.64 | 0.05 | 54 | 1014.8 |
| 20260507104552 | 21 | 183 | 1.6 | 4.8 | 0.00 | 0.64 | 0.05 | 55 | 1014.9 |
| 20260507103051 | 20 | 228 | 1.6 | 6.4 | 0.00 | 0.64 | 0.05 | 60 | 1014.9 |
| 20260507101602 | 21 | 212 | 1.6 | 11.3 | 0.00 | 0.64 | 0.05 | 60 | 1015.2 |
| 20260507100048 | 20 | 165 | 3.2 | 8.0 | 0.00 | 0.64 | 0.05 | 60 | 1015.1 |
| 20260507094551 | 20 | 180 | 3.2 | 9.7 | 0.00 | 0.64 | 0.05 | 64 | 1015.1 |
| 20260507093055 | 19 | 184 | 3.2 | 12.9 | 0.00 | 0.64 | 0.05 | 65 | 1015.2 |
| 20260507091556 | 18 | 289 | 3.2 | 6.4 | 0.00 | 0.64 | 0.05 | 67 | 1015.2 |
| 20260507090057 | 18 | 0 | 1.6 | 4.8 | 0.00 | 0.64 | 0.05 | 70 | 1015.2 |
| 20260507084554 | 18 | 60 | 3.2 | 8.0 | 0.00 | 0.64 | 0.05 | 69 | 1015.3 |
| 20260507083053 | 18 | 198 | 0.0 | 3.2 | 0.00 | 0.64 | 0.05 | 70 | 1015.2 |
| 20260507081554 | 17 | 79 | 3.2 | 6.4 | 0.00 | 0.64 | 0.05 | 71 | 1015.0 |
| 20260507074602 | 17 | 285 | 0.0 | 4.8 | 0.00 | 0.64 | 0.05 | 75 | 1014.9 |
| 20260507073053 | 16 | 59 | 3.2 | 6.4 | 0.00 | 0.64 | 0.05 | 75 | 1014.9 |
| 20260507071553 | 16 | 0 | 1.6 | 3.2 | 0.00 | 0.64 | 0.05 | 77 | 1014.9 |
| 20260507070058 | 17 | 208 | 0.0 | 1.6 | 0.00 | 0.64 | 0.05 | 77 | 1014.7 |
| 20260507064554 | 16 | 226 | 0.0 | 1.6 | 0.00 | 0.64 | 0.05 | 80 | 1014.7 |
| 20260507063054 | 14 | 43 | 1.6 | 3.2 | 0.00 | 0.64 | 0.05 | 83 | 1014.7 |
| 20260507061554 | 15 | 221 | 0.0 | 1.6 | 0.00 | 0.64 | 0.05 | 83 | 1014.7 |
| 20260507060052 | 14 | 0 | 0.0 | 1.6 | 0.00 | 0.64 | 0.05 | 88 | 1014.6 |
| 20260507054631 | 13 | 96 | 0.0 | 1.6 | 0.00 | 0.64 | 0.05 | 90 | 1014.5 |
| 20260507053053 | 12 | 0 | 0.0 | 1.6 | 0.00 | 0.64 | 0.05 | 91 | 1014.4 |
| 20260507051552 | 11 | 0 | 0.0 | 0.0 | 0.00 | 0.64 | 0.05 | 91 | 1014.3 |
| 20260507050057 | 11 | 0 | 0.0 | 0.0 | 0.00 | 0.64 | 0.05 | 91 | 1014.2 |
| 20260507044554 | 10 | 0 | 0.0 | 0.0 | 0.00 | 0.64 | 0.05 | 91 | 1014.0 |
| 20260507043050 | 10 | 0 | 0.0 | 0.0 | 0.00 | 0.64 | 0.05 | 90 | 1013.8 |
| 20260507041603 | 10 | 0 | 0.0 | 0.0 | 0.00 | 0.64 | 0.05 | 90 | 1013.7 |
| 20260507040058 | 10 | 0 | 0.0 | 0.0 | 0.00 | 0.64 | 0.05 | 90 | 1013.7 |
| 20260507034600 | 10 | 0 | 0.0 | 1.6 | 0.00 | 0.64 | 0.05 | 90 | 1013.7 |
| 20260507033101 | 10 | 0 | 0.0 | 0.0 | 0.00 | 0.64 | 0.05 | 89 | 1013.6 |
| 20260507031605 | 11 | 0 | 0.0 | 0.0 | 0.00 | 0.64 | 0.05 | 89 | 1013.6 |
| 20260507030055 | 11 | 25 | 0.0 | 3.2 | 0.00 | 0.64 | 0.05 | 89 | 1013.6 |
| 20260507024553 | 11 | 13 | 0.0 | 1.6 | 0.00 | 0.94 | 0.05 | 89 | 1013.7 |
| 20260507023102 | 11 | 0 | 0.0 | 1.6 | 0.00 | 0.94 | 0.05 | 89 | 1013.7 |
| 20260507021551 | 11 | 0 | 0.0 | 1.6 | 0.00 | 0.94 | 0.05 | 88 | 1013.8 |
| 20260507020056 | 11 | 0 | 0.0 | 3.2 | 0.00 | 0.94 | 0.05 | 87 | 1013.6 |
| 20260507014600 | 11 | 37 | 1.6 | 4.8 | 0.00 | 0.94 | 0.05 | 87 | 1013.5 |
| 20260507013053 | 12 | 53 | 0.0 | 1.6 | 0.00 | 0.94 | 0.05 | 88 | 1013.6 |
| 20260507011552 | 12 | 0 | 0.0 | 1.6 | 0.00 | 0.94 | 0.05 | 87 | 1013.6 |
| 20260507010054 | 12 | 53 | 0.0 | 1.6 | 0.00 | 0.94 | 0.05 | 86 | 1013.8 |
| 20260507004552 | 12 | 0 | 0.0 | 3.2 | 0.00 | 0.94 | 0.05 | 86 | 1013.7 |
| 20260507003055 | 12 | 0 | 0.0 | 6.4 | 0.00 | 0.94 | 0.05 | 87 | 1013.7 |
| 20260507001551 | 12 | 112 | 0.0 | 1.6 | 0.00 | 0.94 | 0.05 | 87 | 1013.9 |
| 20260507000051 | 12 | 0 | 0.0 | 6.4 | 0.00 | 0.94 | 0.05 | 87 | 1013.8 |
| 20260506234550 | 12 | 139 | 1.6 | 4.8 | 0.00 | 0.94 | 0.05 | 87 | 1014.0 |
| 20260506233108 | 12 | 155 | 1.6 | 4.8 | 0.00 | 0.94 | 0.05 | 87 | 1013.9 |
| 20260506231553 | 12 | 70 | 1.6 | 6.4 | 0.00 | 0.94 | 0.05 | 88 | 1013.8 |
| 20260506230053 | 12 | 56 | 3.2 | 8.0 | 0.05 | 0.94 | 0.05 | 88 | 1014.0 |
| 20260506224553 | 12 | 134 | 4.8 | 9.7 | 0.05 | 1.02 | 0.05 | 88 | 1014.2 |
| 20260506223053 | 12 | 152 | 4.8 | 11.3 | 0.05 | 1.02 | 0.05 | 88 | 1014.0 |
| 20260506221553 | 12 | 137 | 3.2 | 9.7 | 0.03 | 1.02 | 0.03 | 88 | 1013.8 |
| 20260506220056 | 13 | 124 | 3.2 | 8.0 | 0.00 | 0.97 | 0.00 | 88 | 1013.9 |
| 20260506214552 | 13 | 136 | 1.6 | 8.0 | 0.00 | 0.97 | 0.97 | 88 | 1013.9 |
| 20260506213113 | 13 | 136 | 1.6 | 6.4 | 0.00 | 0.97 | 0.97 | 88 | 1013.8 |
| 20260506211551 | 13 | 0 | 0.0 | 3.2 | 0.00 | 0.97 | 0.97 | 88 | 1013.6 |
| 20260506210054 | 13 | 140 | 0.0 | 4.8 | 0.00 | 0.97 | 0.97 | 88 | 1013.6 |
| 20260506204554 | 13 | 127 | 1.6 | 4.8 | 0.00 | 0.97 | 0.97 | 88 | 1013.5 |
| 20260506203053 | 13 | 98 | 1.6 | 3.2 | 0.00 | 0.97 | 0.97 | 88 | 1013.4 |
| 20260506201550 | 14 | 128 | 3.2 | 8.0 | 0.00 | 0.97 | 0.97 | 88 | 1013.3 |
| 20260506200053 | 14 | 120 | 3.2 | 6.4 | 0.00 | 0.97 | 0.97 | 88 | 1013.2 |
| 20260506194616 | 15 | 122 | 1.6 | 6.4 | 0.00 | 0.97 | 0.97 | 88 | 1012.7 |
| 20260506193102 | 15 | 122 | 1.6 | 6.4 | 0.00 | 0.97 | 0.97 | 89 | 1012.8 |
| 20260506191551 | 15 | 135 | 0.0 | 8.0 | 0.00 | 0.97 | 0.97 | 89 | 1012.4 |
| 20260506190057 | 15 | 110 | 1.6 | 12.9 | 0.00 | 0.97 | 0.97 | 89 | 1012.1 |
| 20260506184638 | 15 | 134 | 3.2 | 6.4 | 0.00 | 0.97 | 0.97 | 88 | 1012.0 |
| 20260506183057 | 16 | 0 | 0.0 | 1.6 | 0.00 | 0.97 | 0.97 | 88 | 1011.7 |